Location: Holmbach
(49.5093°N, 8.8411°E)
Time: 05:29:40
(UTC+00:00)

Timation 2 Rocket - Pass Details

Date: 17 June 2025
Orbit: 905 x 1073 km, 70.0° (Epoch: 12 July)

Event Time Altitude Azimuth Distance (km) Brightness Sun altitude
Exits shadow 23:50:56 26° 175° (S) 1,694 4.7 -16.9°
Maximum altitude 23:54:03 52° 112° (ESE) 1,116 4.2 -16.8°
Drops below altitude 10° 23:59:50 10° 38° (NE) 2,606 7.2 -16.7°
Sets 00:02:24 0° 34° (NNE) 3,563 8.2 -16.6°
